Powrót do katalogu

STARLINK-37569

AktywnyŁącznośćVLEO
NORAD 69836·PAYLOAD·🇺🇸 United States

Wystrzelony Jul 5, 2026 z Cape Canaveral Space Force Station

Loading…

Następne Przeloty (najbliższe 24 godziny)

TLE

ŚwieżeSource: CelesTrak SupGP

Epoka: Sep 15, 2026, 03:26 UTC

1 69836C 26154T   26258.14354167  .00068260  00000+0  20172-2 0  2587
2 69836  53.1582 356.5573 0001184  94.1263  87.7120 15.34350090    17

Śledź STARLINK-37569 w czasie rzeczywistym z AllMySat

Download on the App Store